Weather History for Springfield, CO

Change the Weather History Date:

Saturday, March 9, 2013

  Actual Average Record
Temperature  
Mean Temperature 42 °F -  
Max Temperature 55 °F 56 °F 71 °F (2009)
Min Temperature 29 °F 26 °F 10 °F (2002)
Degree Days  
Heating Degree Days 23 24  
Month to date heating degree days 176 227  
Since 1 July heating degree days 3953 4233  
Cooling Degree Days 0 0  
Month to date cooling degree days 0 0  
Year to date cooling degree days 0 0  
Moisture  
Dew Point 33 °F    
Average Humidity 69    
Maximum Humidity 96    
Minimum Humidity 41    
Precipitation  
Precipitation 0.02 in 0.04 in 0.02 in (2006)
Month to date precipitation 0.07 0.25  
Year to date precipitation 0.20 1.06  
Sea Level Pressure  
Sea Level Pressure 29.57 in    
Wind  
Wind Speed 24 mph (NW)    
Max Wind Speed 48 mph    
Max Gust Speed 58 mph    
T = Trace of Precipitation, MM = Missing Value Source: NWS Daily Summary

Daily Weather History Graph

Daily Weather History Graph

Search for Another Location

Airport:

Trip Planner

Search our weather history database for the weather conditions in past years. The results will help you decide how hot, cold, wet, or windy it might be!

Date:

Astronomy

Mar. 09, 2013 Rise Set
Actual Time 6:09 AM MST 5:52 PM MST
Civil Twilight 5:43 AM MST 6:18 PM MST
Nautical Twilight 5:13 AM MST 6:48 PM MST
Astronomical Twilight 4:43 AM MST 7:19 PM MST
Moon 4:32 AM MST (3/9) 3:58 PM MST (3/9)
Length of Visible Light 12h 34m
Length of Day
11h 42m
Waning Crescent, 5% of the Moon is Illuminated
Mar 9
Waning Crescent
Mar 11
New
Mar 19
First Quarter
Mar 27
Full
Apr 2
Last Quarter

Hourly Weather History & Observations

Time (MST) Temp. Windchill Dew Point Humidity Pressure Visibility Wind Dir Wind Speed Gust Speed Precip Events Conditions
12:56 AM 45.0 °F 37.4 °F 37.9 °F 76% 29.52 in - SSW 18.4 mph - N/A   Unknown
1:56 AM 46.0 °F 38.0 °F 37.0 °F 71% 29.50 in - SSW 21.9 mph 27.6 mph N/A   Unknown
2:56 AM 44.1 °F 35.9 °F 35.1 °F 71% 29.47 in - SW 19.6 mph 25.3 mph N/A   Unknown
3:56 AM 43.0 °F 35.7 °F 37.0 °F 80% 29.46 in - SW 15.0 mph 24.2 mph N/A   Unknown
4:56 AM 43.0 °F 33.8 °F 36.0 °F 76% 29.44 in - SSW 23.0 mph - N/A   Unknown
5:56 AM 42.1 °F 34.9 °F 35.1 °F 76% 29.46 in - SW 13.8 mph - N/A   Unknown
6:56 AM 42.1 °F 35.2 °F 35.1 °F 76% 29.46 in - SW 12.7 mph - N/A   Unknown
7:56 AM 46.9 °F - 33.1 °F 59% 29.47 in - WSW 15.0 mph 23.0 mph N/A   Unknown
8:56 AM 52.0 °F - 30.0 °F 43% 29.47 in - WNW 12.7 mph 21.9 mph N/A   Unknown
9:56 AM 54.0 °F - 30.0 °F 40% 29.47 in - NNW 12.7 mph 24.2 mph N/A   Unknown
10:56 AM 54.0 °F - 33.1 °F 45% 29.47 in - NNW 16.1 mph - N/A   Unknown
11:56 AM 54.0 °F - 34.0 °F 47% 29.47 in - NNW 15.0 mph 23.0 mph N/A   Unknown
12:56 PM 55.0 °F - 33.1 °F 43% 29.44 in - North 20.7 mph 26.5 mph N/A   Unknown
1:56 PM 44.1 °F 34.6 °F 34.0 °F 68% 29.51 in - North 26.5 mph 32.2 mph N/A   Unknown
2:56 PM 35.1 °F 23.3 °F 33.1 °F 92% 29.59 in - North 23.0 mph 32.2 mph 0.02 in   Unknown
3:56 PM 34.0 °F 21.8 °F 32.0 °F 92% 29.63 in - NNW 23.0 mph 29.9 mph N/A   Unknown
4:56 PM 32.0 °F 19.2 °F 30.9 °F 96% 29.63 in - North 23.0 mph 36.8 mph N/A   Unknown
5:56 PM 30.9 °F 15.9 °F 28.9 °F 92% 29.68 in - North 31.1 mph 42.6 mph N/A   Unknown
6:56 PM 30.9 °F 14.7 °F 28.9 °F 92% 29.73 in - North 38.0 mph 48.3 mph N/A   Unknown
7:56 PM 30.0 °F 13.4 °F 28.9 °F 96% 29.77 in - North 38.0 mph 49.5 mph N/A   Unknown
8:56 PM 30.0 °F 13.0 °F 28.9 °F 96% 29.80 in - North 40.3 mph 50.6 mph N/A   Unknown
9:56 PM 30.0 °F 13.0 °F 28.9 °F 96% 29.82 in - North 40.3 mph 49.5 mph N/A   Unknown
10:56 PM 30.0 °F 13.2 °F 28.9 °F 96% 29.85 in - North 39.1 mph 47.2 mph N/A   Unknown